User: anonymous   Login
Location: Los Gatos B&B
(42.6926°N, 77.0646°W)
Time: 22:09:48
(UTC-05:00)
Language:

Cosmos 2263 Rocket - Orbit

View from above orbital plane
View from above orbital plane
View from above satellite
View from above satellite

Ground track
Ground track

The orbit data is extracted from the following two-line orbital elements,

1 22803U 93059B   15060.85392862 -.00000189  00000-0 -70140-4 0  9992
2 22803 070.9892 215.9127 0018973 227.5971 132.3548 14.16701713109546
Epoch (UTC): 01 March 2015 20:29:39
Eccentricity: 0.0018973
inclination: 70.9892°
perigee height: 823 km
apogee height: 850 km
right ascension of ascending node: 215.9127°
argument of perigee: 227.5971°
revolutions per day: 14.16701713
mean anomaly at epoch: 132.3548°
orbit number at epoch: 10954

The dashed part of the orbit path shows where the satellite is in the earth's shadow,  

DLR